This is the latest recevied weather packets stored in our database for station/object K1TTC. If no packets are shown the sender has not sent any weather packets the latest 10 day(s).
| Time | Temp. | Humidity | Pressure | Rain* | Wind** | Luminosity | Snow |
|---|---|---|---|---|---|---|---|
| 1777998199 | 26.11° C | 36% | 1009.5 hPa | 0 mm | - | 893 W/m² | - |
| 1777997717 | 26.11° C | 37% | 1009.8 hPa | 0 mm | - | 881 W/m² | - |
| 1777996996 | 25.56° C | 40% | 1010 hPa | 0 mm | - | 932 W/m² | - |
| 1777996514 | 24.44° C | 39% | 1010.3 hPa | 0 mm | - | 977 W/m² | - |
| 1777995796 | 24.44° C | 40% | 1010.4 hPa | 0 mm | - | 865 W/m² | - |
| 1777995196 | 23.89° C | 42% | 1010.5 hPa | 0 mm | - | 858 W/m² | - |
| 1777994595 | 23.89° C | 43% | 1010.5 hPa | 0 mm | - | 1121 W/m² | - |
| 1777994115 | 23.33° C | 45% | 1010.5 hPa | 0 mm | - | 886 W/m² | - |
| 1777993397 | 22.78° C | 47% | 1010.3 hPa | 0 mm | - | 828 W/m² | - |
| 1777992794 | 22.22° C | 46% | 1010.5 hPa | 0 mm | - | 814 W/m² | - |
| 1777992194 | 21.67° C | 48% | 1010.7 hPa | 0 mm | - | 812 W/m² | - |
| 1777991711 | 20.56° C | 49% | 1010.9 hPa | 0 mm | - | 856 W/m² | - |
| 1777990994 | 20° C | 50% | 1011 hPa | 0 mm | - | 360 W/m² | - |
| 1777990394 | 19.44° C | 51% | 1010.9 hPa | 0 mm | - | 251 W/m² | - |
| 1777989796 | 19.44° C | 53% | 1010.8 hPa | 0 mm | - | 795 W/m² | - |
| 1777989302 | 18.89° C | 54% | 1010.9 hPa | 0 mm | - | 345 W/m² | - |
| 1777988593 | 18.33° C | 57% | 1010.8 hPa | 0 mm | - | 798 W/m² | - |
| 1777987993 | 17.22° C | 58% | 1010.9 hPa | 0 mm | - | 642 W/m² | - |
| 1777987392 | 17.22° C | 57% | 1010.9 hPa | 0 mm | - | 107 W/m² | - |
| 1777986793 | 17.78° C | 56% | 1011.1 hPa | 0 mm | - | 100 W/m² | - |
| 1777986191 | 17.78° C | 54% | 1011.2 hPa | 0 mm | - | 67 W/m² | - |
| 1777985590 | 17.22° C | 56% | 1011 hPa | 0 mm | - | 619 W/m² | - |
| 1777984987 | 16.67° C | 56% | 1011 hPa | 0 mm | - | 526 W/m² | - |
| 1777984387 | 16.11° C | 57% | 1011 hPa | 0 mm | - | 629 W/m² | - |
| 1777983786 | 15.56° C | 58% | 1011 hPa | 0 mm | - | 587 W/m² | - |
* Rain latest hour (hover to see other rain measurements)
** Current wind speed in m/s (hover to see current wind gust speed)